timestamp,surface_pressure_avg,surface_temp_avg,battery_voltage,lat,long
2017-09-17 00:00:00+00:00,266.9497,14.6,12.97,47.84626,-54.09684
2017-09-17 00:10:00+00:00,258.0447,14.6,12.97,47.84626,-54.09684
2017-09-17 00:20:00+00:00,255.8581,14.6,12.97,47.84626,-54.09684
2017-09-17 00:30:00+00:00,250.8431,14.61,12.97,47.84626,-54.09684
2017-09-17 00:40:00+00:00,241.583,14.62,12.97,47.84626,-54.09684
2017-09-17 00:50:00+00:00,236.0748,14.84,12.97,47.84626,-54.09684
2017-09-17 01:00:00+00:00,236.2814,14.9,12.97,47.84626,-54.09684
2017-09-17 01:10:00+00:00,231.1964,14.93,12.89,47.84626,-54.09684
2017-09-17 01:20:00+00:00,224.8431,15.0,12.97,47.84626,-54.09684
2017-09-17 01:30:00+00:00,221.6914,15.0,12.97,47.84626,-54.09684
2017-09-17 01:40:00+00:00,218.9364,15.0,12.97,47.84626,-54.09684
2017-09-17 01:50:00+00:00,215.5864,15.0,12.97,47.84626,-54.09684
2017-09-17 02:00:00+00:00,212.0181,15.0,12.97,47.84626,-54.09684
2017-09-17 02:10:00+00:00,209.9064,15.0,12.89,47.84626,-54.09684
2017-09-17 02:20:00+00:00,208.6781,15.0,12.97,47.84626,-54.09684
2017-09-17 02:30:00+00:00,207.0598,14.96,12.97,47.84626,-54.09684
2017-09-17 02:40:00+00:00,205.1848,14.94,12.97,47.84626,-54.09684
2017-09-17 02:50:00+00:00,201.8964,14.94,12.97,47.84626,-54.09684
2017-09-17 03:00:00+00:00,197.1015,14.9,12.97,47.84626,-54.09684
2017-09-17 03:10:00+00:00,193.9497,14.9,12.89,47.84626,-54.09684
2017-09-17 03:20:00+00:00,197.5898,14.9,12.97,47.84626,-54.09684
2017-09-17 03:30:00+00:00,198.0065,14.9,12.97,47.84626,-54.09684
2017-09-17 03:40:00+00:00,195.9964,14.9,12.97,47.84626,-54.09684
2017-09-17 03:50:00+00:00,201.5331,14.9,12.97,47.84626,-54.09684
2017-09-17 04:00:00+00:00,205.1898,14.8,12.97,47.84626,-54.09684
2017-09-17 04:10:00+00:00,205.6947,14.8,12.89,47.84626,-54.09684
2017-09-17 04:20:00+00:00,208.4315,14.8,12.97,47.84626,-54.09684
2017-09-17 04:30:00+00:00,213.4915,14.8,12.97,47.84626,-54.09684
2017-09-17 04:40:00+00:00,216.2997,14.8,12.97,47.84626,-54.09684
2017-09-17 04:50:00+00:00,218.308,14.8,12.97,47.84626,-54.09684
2017-09-17 05:00:00+00:00,221.1448,14.8,12.89,47.84626,-54.09684
2017-09-17 05:10:00+00:00,223.9865,14.79,12.89,47.84626,-54.09684
2017-09-17 05:20:00+00:00,229.2565,14.79,12.97,47.84626,-54.09684
2017-09-17 05:30:00+00:00,236.0448,14.71,12.97,47.84626,-54.09684
2017-09-17 05:40:00+00:00,241.6147,14.7,12.97,47.84626,-54.09684
2017-09-17 05:50:00+00:00,248.6614,14.7,12.97,47.84626,-54.09684
2017-09-17 06:00:00+00:00,257.8614,14.7,12.89,47.84626,-54.09684
2017-09-17 06:10:00+00:00,264.9398,14.72,12.89,47.84626,-54.09684
2017-09-17 06:20:00+00:00,271.6298,14.74,12.97,47.84626,-54.09684
2017-09-17 06:30:00+00:00,280.7081,14.71,12.97,47.84626,-54.09684
2017-09-17 06:40:00+00:00,288.3364,14.75,12.97,47.84626,-54.09684
2017-09-17 06:50:00+00:00,292.113,14.76,12.97,47.84626,-54.09684
2017-09-17 07:00:00+00:00,294.8446,14.72,12.89,47.84626,-54.09684
2017-09-17 07:10:00+00:00,302.1213,14.73,12.89,47.84626,-54.09684
2017-09-17 07:20:00+00:00,311.9979,14.73,12.97,47.84626,-54.09684
2017-09-17 07:30:00+00:00,317.7629,14.77,12.97,47.84626,-54.09684
2017-09-17 07:40:00+00:00,319.0164,14.56,12.97,47.84626,-54.09684
2017-09-17 07:50:00+00:00,321.1513,14.5,12.97,47.84626,-54.09684
2017-09-17 08:00:00+00:00,329.408,14.47,12.89,47.84626,-54.09684
2017-09-17 08:10:00+00:00,333.6514,14.5,12.89,47.84626,-54.09684
2017-09-17 08:20:00+00:00,335.2563,14.42,12.89,47.84626,-54.09684
2017-09-17 08:30:00+00:00,338.3097,14.4,12.89,47.84626,-54.09684
2017-09-17 08:40:00+00:00,341.2946,14.42,12.97,47.84626,-54.09684
2017-09-17 08:50:00+00:00,341.1313,14.45,12.97,47.84626,-54.09684
2017-09-17 09:00:00+00:00,340.838,14.4,12.89,47.84626,-54.09684
2017-09-17 09:10:00+00:00,343.7729,14.29,12.81,47.84626,-54.09684
2017-09-17 09:20:00+00:00,341.2614,14.41,12.89,47.84626,-54.09684
2017-09-17 09:30:00+00:00,336.3012,14.4,12.89,47.84626,-54.09684
2017-09-17 09:40:00+00:00,337.663,14.2,12.97,47.84626,-54.09684
2017-09-17 09:50:00+00:00,340.9763,14.2,13.05,47.84626,-54.09684
2017-09-17 10:00:00+00:00,335.023,14.3,13.21,47.84626,-54.09684
2017-09-17 10:10:00+00:00,328.1995,14.2,13.13,47.84626,-54.09684
2017-09-17 10:20:00+00:00,330.4948,14.25,13.37,47.84626,-54.09684
2017-09-17 10:30:00+00:00,326.568,14.3,13.37,47.84626,-54.09684
2017-09-17 10:40:00+00:00,315.4863,14.3,13.53,47.84626,-54.09684
2017-09-17 10:50:00+00:00,310.2496,14.2,13.53,47.84626,-54.09684
2017-09-17 11:00:00+00:00,306.2147,14.2,13.68,47.84626,-54.09684
2017-09-17 11:10:00+00:00,301.1564,14.29,13.68,47.84626,-54.09684
2017-09-17 11:20:00+00:00,294.0997,14.3,13.44,47.84626,-54.09684
2017-09-17 11:30:00+00:00,290.9613,14.3,14.08,47.84626,-54.09684
2017-09-17 11:40:00+00:00,283.473,14.2,13.44,47.84626,-54.09684
2017-09-17 11:50:00+00:00,276.498,14.18,13.44,47.84626,-54.09684
2017-09-17 12:00:00+00:00,268.8264,14.55,13.68,47.84626,-54.09684
2017-09-17 12:10:00+00:00,264.623,14.5,13.53,47.84626,-54.09684
2017-09-17 12:20:00+00:00,259.2547,14.22,13.44,47.84626,-54.09684
2017-09-17 12:30:00+00:00,250.7564,14.37,13.53,47.84626,-54.09684
2017-09-17 12:40:00+00:00,241.2481,14.67,13.76,47.84626,-54.09684
2017-09-17 12:50:00+00:00,237.6047,14.7,14.0,47.84626,-54.09684
2017-09-17 13:00:00+00:00,236.1898,14.56,13.68,47.84626,-54.09684
2017-09-17 13:10:00+00:00,230.5714,14.65,13.53,47.84626,-54.09684
2017-09-17 13:20:00+00:00,225.7431,14.7,13.53,47.84626,-54.09684
2017-09-17 13:30:00+00:00,223.4898,14.27,13.68,47.84626,-54.09684
2017-09-17 13:40:00+00:00,223.5864,14.1,13.44,47.84626,-54.09684
2017-09-17 13:50:00+00:00,218.6465,14.46,13.44,47.84626,-54.09684
2017-09-17 14:00:00+00:00,212.3998,14.5,13.44,47.84626,-54.09684
2017-09-17 14:10:00+00:00,210.1348,14.58,13.68,47.84626,-54.09684
2017-09-17 14:20:00+00:00,211.4598,14.5,13.53,47.84626,-54.09684
2017-09-17 14:30:00+00:00,207.9398,14.58,13.44,47.84626,-54.09684
2017-09-17 14:40:00+00:00,203.7314,14.6,13.6,47.84626,-54.09684
2017-09-17 14:50:00+00:00,203.7431,14.6,13.76,47.84626,-54.09684
2017-09-17 15:00:00+00:00,202.3348,14.52,13.44,47.84626,-54.09684
2017-09-17 15:10:00+00:00,198.7032,14.6,13.53,47.84626,-54.09684
2017-09-17 15:20:00+00:00,198.9281,14.69,13.44,47.84626,-54.09684
2017-09-17 15:30:00+00:00,202.1247,14.7,13.44,47.84626,-54.09684
2017-09-17 15:40:00+00:00,200.7915,14.68,13.44,47.84626,-54.09684
2017-09-17 15:50:00+00:00,196.2631,14.7,13.6,47.84626,-54.09684
2017-09-17 16:00:00+00:00,195.9948,14.7,13.76,47.84626,-54.09684
2017-09-17 16:10:00+00:00,199.4465,14.7,13.53,47.84626,-54.09684
2017-09-17 16:20:00+00:00,201.2531,14.7,13.68,47.84626,-54.09684
2017-09-17 16:30:00+00:00,204.2048,14.7,13.44,47.84626,-54.09684
2017-09-17 16:40:00+00:00,210.6548,14.67,13.53,47.84626,-54.09684
2017-09-17 16:50:00+00:00,215.3865,14.6,13.6,47.84626,-54.09684
2017-09-17 17:00:00+00:00,216.3898,14.6,13.53,47.84626,-54.09684
2017-09-17 17:10:00+00:00,221.4648,14.5,13.37,47.84626,-54.09684
2017-09-17 17:20:00+00:00,229.4731,14.5,13.53,47.84626,-54.09684
2017-09-17 17:30:00+00:00,232.0231,14.54,13.6,47.84626,-54.09684
2017-09-17 17:40:00+00:00,235.4814,14.5,13.68,47.84626,-54.09684
2017-09-17 17:50:00+00:00,239.8448,14.5,13.84,47.84626,-54.09684
2017-09-17 18:00:00+00:00,243.9798,14.5,13.68,47.84626,-54.09684
2017-09-17 18:10:00+00:00,249.9581,14.4,13.68,47.84626,-54.09684
2017-09-17 18:20:00+00:00,258.9697,14.4,13.68,47.84626,-54.09684
2017-09-17 18:30:00+00:00,264.7381,14.4,13.68,47.84626,-54.09684
2017-09-17 18:40:00+00:00,268.8814,14.3,13.68,47.84626,-54.09684
2017-09-17 18:50:00+00:00,274.1764,14.3,13.53,47.84626,-54.09684
2017-09-17 19:00:00+00:00,284.9514,14.2,13.44,47.84626,-54.09684
2017-09-17 19:10:00+00:00,293.5313,14.3,13.29,47.84626,-54.09684
2017-09-17 19:20:00+00:00,299.0397,14.29,13.37,47.84626,-54.09684
2017-09-17 19:30:00+00:00,305.1213,14.28,13.37,47.84626,-54.09684
2017-09-17 19:40:00+00:00,319.2863,14.2,13.37,47.84626,-54.09684
2017-09-17 19:50:00+00:00,324.6462,14.24,13.37,47.84626,-54.09684
2017-09-17 20:00:00+00:00,327.5613,14.3,13.29,47.84626,-54.09684
2017-09-17 20:10:00+00:00,333.3846,14.3,13.21,47.84626,-54.09684
2017-09-17 20:20:00+00:00,344.5513,14.3,13.21,47.84626,-54.09684
2017-09-17 20:30:00+00:00,347.8563,14.33,13.21,47.84626,-54.09684
2017-09-17 20:40:00+00:00,348.4513,14.4,13.21,47.84626,-54.09684
2017-09-17 20:50:00+00:00,356.4263,14.4,13.21,47.84626,-54.09684
2017-09-17 21:00:00+00:00,364.5045,14.4,13.13,47.84626,-54.09684
2017-09-17 21:10:00+00:00,361.2847,14.44,13.05,47.84626,-54.09684
2017-09-17 21:20:00+00:00,357.0847,14.5,13.05,47.84626,-54.09684
2017-09-17 21:30:00+00:00,362.8796,14.5,13.05,47.84626,-54.09684
2017-09-17 21:40:00+00:00,367.4062,14.5,13.05,47.84626,-54.09684
2017-09-17 21:50:00+00:00,358.3112,14.5,13.05,47.84626,-54.09684
2017-09-17 22:00:00+00:00,358.4113,14.4,13.05,47.84626,-54.09684
2017-09-17 22:10:00+00:00,365.3413,14.4,12.97,47.84626,-54.09684
2017-09-17 22:20:00+00:00,361.2347,14.4,13.05,47.84626,-54.09684
2017-09-17 22:30:00+00:00,353.178,14.4,13.05,47.84626,-54.09684
2017-09-17 22:40:00+00:00,353.8997,14.22,13.05,47.84626,-54.09684
2017-09-17 22:50:00+00:00,352.4012,14.32,13.05,47.84626,-54.09684
2017-09-17 23:00:00+00:00,344.8347,14.4,13.05,47.84626,-54.09684
2017-09-17 23:10:00+00:00,341.3497,14.38,12.97,47.84626,-54.09684
2017-09-17 23:20:00+00:00,338.4263,14.3,13.05,47.84626,-54.09684
2017-09-17 23:30:00+00:00,330.6263,14.4,13.05,47.84626,-54.09684
2017-09-17 23:40:00+00:00,324.7163,14.4,13.05,47.84626,-54.09684
2017-09-17 23:50:00+00:00,320.1964,14.4,13.05,47.84626,-54.09684
